CW3546 Weather Reports


time (UTC)temp
F
wind
direction
speed
knots
gust
knots
rain 1hr
in
rain 24hr
in
rain mn
in
humidity
%
barometer
mb
20260503050516 51 309 1.7 7.0 0.00 0.03 0.01 95 1007.7
20260503050116 51 293 1.7 5.2 0.00 0.03 0.01 95 1007.6
20260503045515 51 309 0.9 6.1 0.00 0.03 0.01 95 1007.7
20260503045015 51 315 2.6 6.1 0.00 0.03 0.01 95 1007.7
20260503044527 51 315 2.6 7.0 0.00 0.03 0.01 95 1007.7
20260503044013 51 304 1.7 7.8 0.00 0.03 0.01 95 1007.7
20260503043513 51 338 3.5 7.8 0.00 0.03 0.01 95 1007.8
20260503043013 51 360 1.7 7.8 0.00 0.03 0.01 95 1007.8
20260503042512 51 321 1.7 6.1 0.00 0.03 0.01 95 1007.8
20260503042011 51 308 1.7 6.1 0.00 0.03 0.01 95 1007.9
20260503041511 51 307 2.6 7.0 0.00 0.03 0.01 95 1007.9
20260503041010 51 295 1.7 7.0 0.00 0.03 0.01 95 1008.0
20260503040513 51 298 2.6 7.0 0.00 0.03 0.01 95 1008.0
20260503040014 51 286 4.3 7.0 0.00 0.03 0.01 95 1008.0
20260503035508 51 300 1.7 4.3 0.00 0.03 0.01 95 1008.1
20260503035010 51 296 1.7 7.0 0.00 0.03 0.01 95 1008.1
20260503034511 51 324 3.5 7.0 0.00 0.03 0.01 95 1008.2
20260503034007 52 291 1.7 8.7 0.00 0.03 0.01 95 1008.2
20260503033508 51 321 2.6 8.7 0.00 0.03 0.01 95 1008.2
20260503033011 51 316 1.7 7.0 0.00 0.03 0.01 95 1008.3
20260503032506 52 320 1.7 7.0 0.00 0.03 0.01 95 1008.3
20260503032010 52 312 2.6 7.0 0.00 0.03 0.01 95 1008.2
20260503031506 52 314 2.6 7.0 0.00 0.03 0.01 95 1008.2
20260503031004 52 310 2.6 5.2 0.00 0.03 0.01 95 1008.3
20260503030503 52 306 0.9 4.3 0.00 0.03 0.01 95 1008.3
20260503030004 52 306 0.9 4.3 0.00 0.03 0.01 95 1008.3
20260503025505 52 298 1.7 4.3 0.00 0.03 0.01 95 1008.3
20260503025003 52 318 2.6 6.1 0.00 0.03 0.01 95 1008.4
20260503024503 52 297 2.6 6.1 0.00 0.03 0.01 95 1008.4
20260503024003 52 313 1.7 7.8 0.00 0.03 0.01 95 1008.4
20260503023501 52 297 2.6 7.8 0.00 0.03 0.01 94 1008.5
20260503023001 52 300 0.9 7.0 0.00 0.03 0.01 95 1008.5
20260503022600 52 323 1.7 7.0 0.00 0.03 0.01 94 1008.6
20260503022059 52 280 1.7 8.7 0.00 0.03 0.01 94 1008.6
20260503021559 52 316 2.6 8.7 0.00 0.03 0.01 94 1008.6
20260503021057 52 304 2.6 7.8 0.00 0.03 0.01 94 1008.7
20260503020556 52 298 2.6 7.8 0.00 0.03 0.01 94 1008.8
20260503020106 52 313 1.7 5.2 0.00 0.03 0.01 94 1008.8
20260503015555 52 313 0.9 4.3 0.00 0.03 0.01 94 1008.9
20260503015054 52 305 1.7 5.2 0.00 0.03 0.01 94 1008.9
20260503014601 52 295 1.7 4.3 0.00 0.03 0.01 94 1008.9
20260503014054 52 323 1.7 4.3 0.01 0.03 0.01 94 1009.0
20260503013553 52 297 0.9 6.1 0.01 0.03 0.01 94 1009.0
20260503013102 52 304 1.7 6.1 0.01 0.03 0.01 94 1009.0
20260503012557 52 312 0.9 5.2 0.01 0.03 0.01 94 1009.1
20260503012052 52 316 0.0 5.2 0.01 0.03 0.01 94 1009.2
20260503011554 52 290 0.9 4.3 0.01 0.03 0.01 94 1009.2
20260503011050 52 287 0.0 5.2 0.01 0.03 0.01 94 1009.3
20260503010550 52 288 0.9 5.2 0.01 0.03 0.01 94 1009.3
20260503010050 52 243 0.9 6.1 0.01 0.03 0.01 94 1009.4
20260503005548 52 305 1.7 6.1 0.01 0.03 0.01 94 1009.4
20260503005047 52 302 1.7 6.1 0.01 0.03 0.01 94 1009.5
20260503004553 52 313 0.9 3.5 0.01 0.03 0.01 94 1009.6
20260503004048 52 309 0.9 3.5 0.00 0.02 0.00 94 1009.7
20260503003646 52 308 0.0 3.5 0.00 0.02 0.00 94 1009.7
20260503003050 52 304 0.0 3.5 0.00 0.02 0.00 94 1009.7
20260503002546 52 300 0.0 3.5 0.00 0.02 0.00 93 1009.8
20260503002044 52 300 0.0 5.2 0.00 0.02 0.00 94 1009.9
20260503001549 52 274 0.9 5.2 0.00 0.02 0.00 94 1010.0
20260503001045 52 307 0.9 4.3 0.00 0.02 0.00 94 1010.0
20260503000541 52 302 0.9 6.1 0.00 0.02 0.00 93 1010.1
20260503000047 52 257 1.7 6.1 0.00 0.02 0.00 93 1010.1
20260502235540 52 289 1.7 7.0 0.00 0.02 0.00 93 1010.2
20260502235039 52 309 2.6 7.0 0.00 0.02 0.00 93 1010.2
20260502234551 52 306 1.7 7.0 0.00 0.02 0.00 93 1010.3
20260502234039 52 313 2.6 6.1 0.00 0.02 0.00 93 1010.4
20260502233536 52 298 0.9 4.3 0.00 0.02 0.00 93 1010.4
20260502233036 52 296 1.7 4.3 0.00 0.02 0.00 93 1010.4
20260502232535 53 286 1.7 4.3 0.00 0.02 0.00 92 1010.5
20260502232035 53 299 1.7 4.3 0.00 0.02 0.00 92 1010.6
20260502231535 53 333 0.0 4.3 0.00 0.02 0.00 92 1010.7
20260502231035 53 302 1.7 4.3 0.00 0.02 0.00 92 1010.6
20260502230535 53 313 0.9 3.5 0.00 0.02 0.00 91 1010.7
20260502230032 53 309 0.0 3.5 0.00 0.02 0.00 91 1010.8
20260502225536 53 328 0.0 1.7 0.00 0.02 0.02 91 1010.8
20260502225033 53 328 0.0 1.7 0.00 0.02 0.02 91 1010.8
20260502224532 53 328 0.0 0.9 0.00 0.02 0.02 90 1010.8
20260502224033 53 328 0.0 1.7 0.00 0.02 0.02 90 1010.8
20260502223531 53 328 0.0 1.7 0.00 0.02 0.02 90 1010.8
20260502223038 53 346 0.0 2.6 0.00 0.02 0.02 90 1010.8
20260502222531 53 346 0.0 2.6 0.00 0.02 0.02 89 1010.8
20260502222030 53 27 0.0 2.6 0.00 0.02 0.02 89 1010.9
20260502221530 53 27 0.0 1.7 0.00 0.02 0.02 89 1010.9
20260502221029 53 60 0.0 0.9 0.00 0.02 0.02 89 1010.9
20260502220529 53 61 0.0 2.6 0.00 0.02 0.02 88 1010.9
20260502220031 53 61 0.0 2.6 0.00 0.02 0.02 88 1010.8
20260502215529 53 69 0.0 2.6 0.00 0.02 0.02 88 1010.9
20260502215028 53 308 0.0 2.6 0.00 0.02 0.02 88 1010.9
20260502214528 53 321 0.0 2.6 0.00 0.02 0.02 88 1010.9
20260502214027 53 321 0.0 2.6 0.00 0.02 0.02 87 1011.0
20260502213528 53 306 0.0 2.6 0.00 0.02 0.02 87 1011.0
20260502213027 54 315 0.0 2.6 0.00 0.02 0.02 87 1011.1
20260502212526 54 289 0.0 3.5 0.00 0.02 0.02 86 1011.3
20260502212026 54 282 0.0 3.5 0.01 0.02 0.02 86 1011.2
20260502211532 54 268 0.0 1.7 0.01 0.02 0.02 86 1011.2
20260502211023 54 265 0.0 0.9 0.01 0.02 0.02 86 1011.4
20260502210523 54 265 0.0 0.0 0.01 0.02 0.02 86 1011.4
20260502210023 54 265 0.0 0.0 0.01 0.02 0.02 86 1011.5
20260502205526 55 265 0.0 0.0 0.01 0.02 0.02 86 1011.4
20260502205022 55 265 0.0 0.0 0.01 0.02 0.02 85 1011.5
20260502204534 55 265 0.0 0.0 0.01 0.02 0.02 85 1011.6
20260502204025 55 265 0.0 0.9 0.01 0.02 0.02 84 1011.7
20260502203521 55 262 0.0 0.9 0.01 0.02 0.02 83 1011.7
20260502203024 55 261 0.0 0.9 0.01 0.02 0.02 82 1011.8
20260502202519 56 261 0.0 0.0 0.01 0.02 0.02 82 1011.9
20260502202020 56 261 0.0 0.0 0.00 0.02 0.02 82 1011.9
20260502201519 56 261 0.0 0.0 0.01 0.02 0.02 83 1011.9
20260502201018 56 261 0.0 0.0 0.01 0.02 0.02 82 1011.9
20260502200518 56 261 0.0 0.0 0.01 0.02 0.02 82 1011.9
20260502200018 56 261 0.0 0.0 0.01 0.02 0.02 82 1012.0
20260502195517 57 261 0.0 0.0 0.01 0.02 0.02 82 1012.0
20260502195017 57 261 0.0 0.0 0.01 0.02 0.02 81 1012.0
20260502194520 57 261 0.0 0.0 0.01 0.02 0.02 81 1012.0
20260502194017 57 261 0.0 0.9 0.01 0.02 0.02 80 1012.0
20260502193518 57 261 0.0 0.9 0.01 0.02 0.02 80 1012.0
20260502193017 58 261 0.0 0.0 0.01 0.02 0.02 81 1012.0
20260502192515 58 261 0.0 0.0 0.01 0.02 0.02 81 1012.1
20260502192016 58 261 0.0 0.0 0.01 0.02 0.02 79 1012.0
20260502191516 58 261 0.0 0.0 0.00 0.02 0.01 78 1012.1
20260502191015 58 261 0.0 0.0 0.00 0.02 0.01 77 1012.1
20260502190515 59 261 0.0 0.0 0.00 0.02 0.01 77 1012.2
20260502190019 59 261 0.0 0.0 0.00 0.02 0.01 77 1012.2
20260502185514 59 261 0.0 0.0 0.00 0.02 0.01 76 1012.2
20260502185014 59 261 0.0 0.0 0.00 0.02 0.01 75 1012.2
20260502184515 59 261 0.0 0.0 0.00 0.02 0.01 73 1012.2
20260502184014 60 261 0.0 0.0 0.00 0.02 0.01 72 1012.2
20260502183515 60 261 0.0 0.0 0.00 0.02 0.01 71 1012.1
20260502183114 60 261 0.0 0.0 0.00 0.02 0.01 69 1012.1
20260502182516 60 261 0.0 0.0 0.00 0.02 0.01 68 1012.1
20260502182013 60 261 0.0 0.0 0.00 0.02 0.01 67 1012.1
20260502181513 60 261 0.0 0.0 0.00 0.02 0.01 65 1012.1
20260502181013 61 261 0.0 0.0 0.00 0.02 0.01 63 1012.1
20260502180512 61 261 0.0 0.0 0.00 0.02 0.01 62 1012.0
20260502170511 62 265 0.0 0.9 0.00 0.03 0.01 53 1012.4
20260502164006 63 265 0.0 1.7 0.00 0.03 0.01 53 1012.6
20260502163506 63 265 0.0 0.0 0.00 0.03 0.01 52 1012.7
20260502163016 63 263 0.0 0.0 0.00 0.03 0.01 52 1012.7
20260502162505 63 263 0.0 0.0 0.00 0.03 0.01 53 1012.7
20260502162006 63 263 0.0 0.0 0.00 0.03 0.01 51 1012.7
20260502161515 63 263 0.0 0.0 0.00 0.03 0.01 50 1012.7
20260502161004 63 263 0.0 0.9 0.00 0.03 0.01 52 1012.8
20260502160503 63 263 0.0 1.7 0.00 0.03 0.01 50 1012.9
20260502152057 64 117 0.0 3.5 0.00 0.03 0.01 48 1013.4
20260502151558 65 117 0.9 3.5 0.00 0.03 0.01 49 1013.5
20260502151059 65 69 0.0 2.6 0.00 0.03 0.01 50 1013.5
20260502150556 65 69 0.0 2.6 0.00 0.03 0.01 49 1013.6
20260502130543 65 157 0.9 4.3 0.00 0.03 0.01 50 1014.8
20260502123538 64 314 1.7 5.2 0.00 0.03 0.01 55 1015.1
20260502123100 62 304 0.0 2.6 0.00 0.03 0.01 59 1015.2
20260502122535 61 42 0.0 1.7 0.00 0.03 0.01 60 1015.2
20260502122038 61 350 0.0 2.6 0.00 0.03 0.01 61 1015.3
20260502121534 61 348 0.9 5.2 0.00 0.03 0.01 59 1015.4
20260502121033 61 293 2.6 4.3 0.00 0.03 0.01 61 1015.5
20260502120531 61 314 0.9 4.3 0.00 0.03 0.01 61 1015.5
20260502115530 61 286 3.5 6.1 0.00 0.03 0.01 62 1015.7
20260502115028 60 186 0.9 6.1 0.00 0.03 0.01 63 1015.8
20260502114526 59 292 0.9 6.1 0.00 0.03 0.01 63 1015.9
20260502114025 59 300 0.9 3.5 0.00 0.03 0.01 63 1016.1
20260502113527 59 294 0.9 4.3 0.00 0.03 0.01 64 1016.1
20260502113029 59 309 1.7 4.3 0.00 0.03 0.01 65 1016.2
20260502112522 59 300 0.9 3.5 0.00 0.03 0.01 65 1016.2
20260502112022 58 306 0.0 3.5 0.00 0.03 0.01 66 1016.2
20260502111522 58 321 0.0 0.9 0.00 0.03 0.01 66 1016.2
20260502111022 58 321 0.0 3.5 0.00 0.03 0.01 67 1016.1
20260502110521 58 321 0.0 3.5 0.00 0.03 0.01 65 1016.2
20260502110022 58 337 0.0 3.5 0.00 0.03 0.01 65 1016.3
20260502105522 58 334 0.9 3.5 0.00 0.03 0.01 65 1016.3
20260502105020 59 312 0.0 2.6 0.00 0.03 0.01 68 1016.3
20260502104521 58 242 0.0 4.3 0.00 0.03 0.01 69 1016.4
20260502104019 58 237 0.0 4.3 0.00 0.03 0.01 69 1016.6
20260502103519 58 299 0.0 1.7 0.00 0.03 0.01 69 1016.6
20260502103019 58 299 0.9 2.6 0.00 0.03 0.01 68 1016.5
20260502102519 58 292 0.0 2.6 0.00 0.03 0.01 67 1016.4
20260502102018 58 286 0.0 2.6 0.00 0.03 0.01 68 1016.3
20260502101517 58 303 0.0 2.6 0.00 0.03 0.01 69 1016.4
20260502101016 58 303 0.0 3.5 0.00 0.03 0.01 69 1016.5
20260502100515 58 303 1.7 3.5 0.00 0.03 0.01 69 1016.6
20260502091511 58 46 0.0 1.7 0.01 0.03 0.01 74 1017.2
20260502091009 57 290 0.0 0.9 0.01 0.03 0.01 76 1017.0
20260502090507 56 290 0.0 0.0 0.01 0.03 0.01 74 1017.0
20260502071052 48 319 0.0 2.6 0.00 0.02 0.00 92 1017.3
20260502070553 48 187 0.0 0.9 0.00 0.02 0.00 93 1017.3
20260502070105 48 187 0.0 0.9 0.00 0.02 0.00 93 1017.3
20260502065549 47 169 0.0 0.0 0.00 0.02 0.00 93 1017.3
20260502065048 47 165 0.0 0.9 0.00 0.02 0.00 93 1017.3
20260502064551 47 162 0.0 0.9 0.00 0.02 0.00 93 1017.3
20260502064047 47 162 0.0 0.0 0.00 0.02 0.00 93 1017.3
20260502063547 47 162 0.0 0.0 0.00 0.02 0.00 93 1017.4
20260502063050 47 162 0.0 0.0 0.00 0.02 0.00 93 1017.3
20260502062547 47 162 0.0 0.0 0.00 0.02 0.00 93 1017.3
20260502062047 47 162 0.0 0.0 0.00 0.02 0.00 93 1017.3
20260502061547 46 162 0.0 0.0 0.00 0.02 0.00 94 1017.2
20260502061049 46 162 0.0 0.9 0.00 0.02 0.00 94 1017.3
20260502060545 46 162 0.0 0.9 0.00 0.02 0.00 94 1017.2
20260502060051 46 162 0.0 0.0 0.00 0.02 0.00 94 1017.2
20260502055545 46 162 0.0 0.0 0.00 0.02 0.00 94 1017.2
20260502055044 46 162 0.0 0.0 0.00 0.02 0.00 94 1017.2
20260502054543 45 162 0.0 0.0 0.00 0.02 0.00 94 1017.2
20260502054042 45 162 0.0 0.0 0.00 0.02 0.00 94 1017.2
20260502053542 45 162 0.0 0.0 0.00 0.02 0.00 94 1017.2
20260502053042 45 162 0.0 0.0 0.00 0.02 0.00 94 1017.1
20260502052541 45 162 0.0 0.0 0.00 0.02 0.00 94 1017.1
20260502052045 45 162 0.0 0.0 0.00 0.02 0.00 94 1017.2
20260502051551 45 162 0.0 0.0 0.00 0.02 0.00 94 1017.1
20260502051038 45 162 0.0 0.0 0.00 0.02 0.00 93 1017.1